This demonstration page uses our WeatherBlox Daily Observations layout. Learn more.

Left ArrowRight Arrow

Hourly Observations for March 5, 2021

Temp ( °F °C ) Dew Point ( °F °C ) Humidity (%) Winds ( mph kmh ) Pressure ( in mb ) Visibility ( mi km ) Precip ( " mm )
12:51 am 00:51 Clear 46 7.8 31 -0.6 56 56 NW 3 6 30.16 1021 10 16 N/A
1:51 am 01:51 Clear 47 8.3 32 undefined 56 56 NNW 6 9 30.16 1021 10 16 N/A
2:51 am 02:51 Clear 49 9.4 32 undefined 52 52 N 9 15 30.13 1020 10 16 N/A
3:51 am 03:51 Clear 46 7.8 29 -1.7 51 51 NNE 5 7 30.14 1021 10 16 N/A
4:51 am 04:51 Clear 39 3.9 28 -2.2 65 65 N N/A 30.16 1022 10 16 N/A
5:51 am 05:51 Clear 36 2.2 27 -2.8 70 70 N N/A 30.17 1022 10 16 N/A
6:51 am 06:51 Sunny 38 3.3 28 -2.2 68 68 ENE 3 6 30.17 1022 10 16 N/A
7:51 am 07:51 Sunny 47 8.3 31 -0.6 54 54 ESE 3 6 30.18 1022 10 16 N/A
8:51 am 08:51 Sunny 49 9.4 28 -2.2 44 44 SSW 3 6 30.19 1023 10 16 N/A
9:51 am 09:51 Sunny 58 14.4 27 -2.8 31 31 SSE 10 17 30.17 1022 10 16 N/A
10:51 am 10:51 Sunny 63 17.2 26 -3.3 25 25 S 9 15 30.15 1021 10 16 N/A
11:51 am 11:51 Sunny 66 18.9 24 -4.4 20 20 SSE 10 17 30.13 1020 10 16 N/A
12:51 pm 12:51 Sunny 69 20.6 24 -4.4 18 18 ESE 6 9 30.10 1019 10 16 N/A
1:51 pm 13:51 Sunny 71 21.7 23 -5 16 16 S 14 22 30.06 1018 10 16 N/A
2:51 pm 14:51 Sunny 73 22.8 21 -6.1 14 14 E 9 15 30.02 1017 10 16 N/A
3:51 pm 15:51 Sunny 74 23.3 17 -8.3 11 11 ESE 13 20 30.01 1016 10 16 N/A
4:51 pm 16:51 Sunny 75 23.9 18 -7.8 11 11 SSE 14 22 30.01 1016 10 16 N/A
5:51 pm 17:51 Sunny 73 22.8 19 -7.2 13 13 SE 13 20 30.01 1016 10 16 N/A
6:51 pm 18:51 Clear 69 20.6 19 -7.2 15 15 SE 12 19 30.03 1017 10 16 N/A
7:51 pm 19:51 Clear 67 19.4 20 -6.7 17 17 ESE 13 20 30.02 1017 10 16 N/A
8:51 pm 20:51 Clear 61 16.1 21 -6.1 21 21 E 9 15 30.04 1017 10 16 N/A
9:51 pm 21:51 Clear 61 16.1 22 -5.6 22 22 E 10 17 30.03 1017 10 16 N/A
10:51 pm 22:51 Clear 58 14.4 21 -6.1 24 24 S 3 6 30.04 1017 10 16 N/A
11:51 pm 23:51 Clear 60 15.6 20 -6.7 21 21 E 16 26 30.04 1017 10 16 N/A

Powered by AerisWeather